Regional Weather Roundup
Issued by NWS Goodland, KS

Home | Current Version | Previous Version | Graphics & Text | Print | Product List | Glossary On
Versions: 1 2 3 4 5 6 7 8 9 10 11 12 13 14 15 16 17 18 19 20 21 22 23 24 25 26 27 28 29 30 31 32 33 34 35 36 37 38 39 40 41 42 43 44 45 46 47 48 49 50
000
ASUS43 KGLD 071259
RWRGLD

GOODLAND FORECAST AREA HOURLY WEATHER ROUNDUP
NATIONAL WEATHER SERVICE GOODLAND KS
600 AM MST WED DEC 07 2016

...OFFICIAL OBSERVATIONS...

CITY           SKY/WX    TMP DP  RH WIND       PRES   REMARKS
GOODLAND KS    LGT SNOW  16  13  88 E9        30.11R FOG
HILL CITY KS   CLOUDY    18  11  74 NE14      30.21R WCI   4
IMPERIAL NEB   LGT SNOW  12   7  80 N14       30.19R WCI  -3
MCCOOK NEB     LGT SNOW  14   9  80 N9        30.22R
AKRON CO       LGT SNOW  11   8  88 NE10      30.06R FOG     WCI  -3
BURLINGTON CO  LGT SNOW  16  11  80 E17       30.05R WCI   0
LIMON CO       CLOUDY    13  11  92 NE10      30.00R WCI   0
$$

...UNOFFICIAL OBSERVATIONS...

CITY           SKY/WX    TMP DP  RH WIND       PRES   REMARKS
COLBY KS       CLOUDY    18  16  93 NE13      30.15R WCI   4
LENORA KS        N/A     16  32 100 MISG        N/A
NORTON KS      CLOUDY    16   9  73 N8        30.21  HAZE
SHARON SPRINGS   N/A     20  15  82 NE13G20     N/A  WCI   7
TRENTON NEB      N/A     12  32 100 CALM        N/A
KIT CARSON CO    N/A     18  10  71 MISG        N/A
YUMA CO        LGT SNOW  12   9  85 NE10      30.12R WCI  -1
$$



USA.gov is the U.S. government's official web portal to all federal, state and local government web resources and services.